IU5JJW-13 Weather Reports


Display with metric or nautical units.
time (UTC)temp
F
wind
direction
speed
MPH
gust
MPH
rain 1hr
in
rain 24hr
in
rain mn
in
humidity
%
barometer
mb
20260507051504 57 92 1.0 3.0 0.00 0.01 0.00 86 1012.3
20260507050004 56 101 1.0 3.0 0.00 0.01 0.00 88 1012.3
20260507043003 54 137 2.0 3.0 0.00 0.01 0.00 90 1012.1
20260507041504 54 130 1.0 3.0 0.00 0.01 0.00 90 1012.0
20260507034505 54 117 1.0 3.0 0.00 0.01 0.00 90 1012.0
20260507033004 55 116 2.0 3.0 0.00 0.01 0.00 89 1011.9
20260507031504 55 110 1.0 2.0 0.00 0.01 0.00 89 1011.9
20260507030008 56 3 1.0 3.0 0.00 0.01 0.00 88 1011.9
20260507024505 57 114 1.0 5.0 0.00 0.01 0.00 89 1011.9
20260507023004 55 87 1.0 2.0 0.00 0.01 0.00 89 1011.9
20260507021515 56 122 2.0 4.0 0.00 0.01 0.00 88 1012.0
20260507020005 56 357 1.0 3.0 0.00 0.01 0.00 88 1011.9
20260507014504 56 13 2.0 5.0 0.00 0.01 0.00 87 1011.7
20260507011507 57 111 3.0 7.0 0.00 0.04 0.00 86 1011.6
20260507010005 57 81 4.0 6.0 0.00 0.08 0.00 86 1011.6
20260507004506 58 34 3.0 5.0 0.00 0.13 0.00 85 1011.9
20260507003006 58 102 2.0 7.0 0.00 0.13 0.00 84 1011.9
20260507001506 59 66 2.0 4.0 0.00 0.13 0.00 83 1012.0
20260507000004 60 80 4.0 7.0 0.00 0.13 0.00 81 1011.4
20260506234504 60 20 2.0 7.0 0.00 0.13 0.00 79 1011.6
20260506233004 61 55 4.0 13.0 0.00 0.13 0.00 84 1011.6
20260506230004 63 309 3.0 8.0 0.00 0.13 0.00 91 1011.4
20260506223006 63 301 3.0 9.0 0.00 0.13 0.00 92 1011.4
20260506220006 63 300 4.0 9.0 0.00 0.13 0.00 92 1011.6
20260506211517 64 294 3.0 8.0 0.00 0.13 0.13 92 1011.6
20260506210003 64 296 3.0 5.0 0.00 0.13 0.13 92 1011.7
20260506204504 63 306 2.0 10.0 0.00 0.13 0.13 92 1011.6
20260506203003 63 312 3.0 10.0 0.00 0.13 0.13 92 1011.5
20260506201503 63 297 5.0 9.0 0.00 0.13 0.13 93 1011.3
20260506200003 63 291 5.0 10.0 0.00 0.13 0.13 92 1011.2
20260506194503 64 288 5.0 11.0 0.00 0.13 0.13 92 1010.9
20260506193003 64 288 4.0 9.0 0.00 0.13 0.13 92 1010.7
20260506191503 64 303 4.0 8.0 0.00 0.13 0.13 92 1010.6
20260506190003 64 303 4.0 9.0 0.00 0.13 0.13 92 1010.6
20260506184502 64 301 4.0 9.0 0.00 0.13 0.13 92 1010.3
20260506183004 64 300 5.0 10.0 0.00 0.13 0.13 91 1010.2
20260506181503 64 284 4.0 8.0 0.00 0.13 0.13 91 1010.0
20260506173003 64 288 7.0 16.0 0.00 0.13 0.13 91 1009.8
20260506171505 65 288 7.0 13.0 0.00 0.13 0.13 90 1009.8
20260506170003 65 273 7.0 16.0 0.00 0.13 0.13 90 1009.9
20260506164502 65 274 7.0 14.0 0.00 0.13 0.13 89 1009.9
20260506163003 65 292 6.0 14.0 0.00 0.13 0.13 89 1010.0
20260506161503 65 293 6.0 17.0 0.00 0.13 0.13 89 1010.3
20260506160004 66 292 7.0 16.0 0.00 0.13 0.13 88 1010.2
20260506154505 66 294 7.0 16.0 0.00 0.13 0.13 88 1010.4
20260506153003 66 290 7.0 14.0 0.00 0.13 0.13 88 1010.3
20260506151503 66 285 6.0 14.0 0.00 0.13 0.13 88 1010.2
20260506150002 66 294 6.0 12.0 0.00 0.13 0.13 88 1010.2
20260506143003 67 292 7.0 14.0 0.00 0.13 0.13 87 1010.2
20260506141518 67 303 6.0 13.0 0.00 0.13 0.13 86 1010.2
20260506140003 68 295 6.0 12.0 0.00 0.13 0.13 86 1010.3
20260506134502 68 292 6.0 15.0 0.00 0.13 0.13 86 1010.3
20260506133003 68 291 6.0 12.0 0.00 0.13 0.13 85 1010.3
20260506131503 68 298 7.0 14.0 0.00 0.13 0.13 86 1010.4
20260506124502 68 305 8.0 17.0 0.00 0.13 0.13 85 1010.5
20260506123003 68 306 6.0 15.0 0.00 0.13 0.13 84 1010.3
20260506121503 68 283 6.0 15.0 0.00 0.13 0.13 85 1010.5
20260506120003 67 288 6.0 13.0 0.00 0.13 0.13 85 1010.4
20260506114503 68 289 8.0 17.0 0.00 0.13 0.13 85 1010.6
20260506113002 68 278 7.0 15.0 0.00 0.13 0.13 85 1010.4
20260506111503 67 278 7.0 15.0 0.00 0.13 0.13 86 1010.2
20260506104505 66 268 9.0 17.0 0.00 0.13 0.13 88 1010.4
20260506103003 66 257 8.0 17.0 0.00 0.13 0.13 88 1010.5
20260506101503 65 285 8.0 18.0 0.00 0.13 0.13 89 1010.5
20260506100003 65 279 7.0 17.0 0.00 0.13 0.13 89 1010.4
20260506093002 65 293 9.0 18.0 0.00 0.13 0.13 90 1010.2
20260506090003 64 285 9.0 19.0 0.00 0.13 0.13 89 1009.8
20260506084503 64 292 9.0 22.0 0.00 0.13 0.13 89 1009.7
20260506083002 64 291 8.0 18.0 0.00 0.13 0.13 89 1009.6
20260506081506 64 285 8.0 17.0 0.00 0.13 0.13 89 1009.5
20260506073003 63 290 7.0 16.0 0.00 0.13 0.13 87 1009.7
20260506071503 63 285 7.0 14.0 0.01 0.13 0.13 87 1009.5
20260506061502 63 310 5.0 12.0 0.00 0.13 0.13 87 1009.4